Current Version              Previous Version:    01  02  03  04  05  06  07  08  09  10  11  12  13  14  15  16  17  18  19  20  21  22  23  24  25  26  27  28  29  30  
   31  32  33  34  35  36  37  38  39  40  41  42  43  44  45  46  47  48  49  50  51  52  53  54  55  56  57  58  59  60  

[Printable]
219
ASUS44 KFWD 212315
RWRTX
NORTH TEXAS HOURLY WEATHER ROUNDUP
NATIONAL WEATHER SERVICE FORT WORTH TX
500 PM CST SUN DEC 21 2014

NOTE: "FAIR" INDICATES FEW OR NO CLOUDS BELOW 12,000 FEET WITH NO
SIGNIFICANT WEATHER AND/OR OBSTRUCTIONS TO VISIBILITY.

TXZ118-119-220000-
DALLAS/FORT WORTH METROPLEX

CITY           SKY/WX    TMP DP  RH WIND       PRES   REMARKS
DFW AIRPORT    CLOUDY    52  45  77 S13       29.85R
DALLAS LOVE    CLOUDY    52  44  74 S14       29.86F
FTW MEACHAM    CLOUDY    53  46  77 SE12      29.83F HAZE
DAL-EXECUTIVE  CLOUDY    53  44  71 S9        29.85F
FTW-ALLIANCE   CLOUDY    51  46  83 S10       29.82F
FTW-SPINKS     CLOUDY    54  46  76 S10       29.86F
ARLINGTON      CLOUDY    53  44  71 S13       29.85S
GRAND PRAIRIE  CLOUDY    52  46  82 S12       29.87S
MESQUITE       CLOUDY    52  45  76 SE10      29.87F
LANCASTER      CLOUDY    51  44  76 S12G22    29.87F
$$

TXZ091>094-102>105-117-120-121-131>134-220000-
NORTH CENTRAL TEXAS

CITY           SKY/WX    TMP DP  RH WIND       PRES   REMARKS
SHRMAN/DENISON CLOUDY    49  47  91 SE16      29.86R
GAINESVILLE    CLOUDY    48  45  89 SE14      29.84S FOG
BOWIE          CLOUDY    49  46  90 SE12      29.77F
BRIDGEPORT     CLOUDY    53  48  83 S10       29.81F
DECATUR        MOCLDY    49  47  94 S12G20    29.80F
DENTON         CLOUDY    51  46  83 S12       29.83F
MCKINNEY       CLOUDY    50  45  83 S14       29.86R
GREENVILLE     CLOUDY    50  45  81 S9        29.88F
ROCKWALL       CLOUDY    50  46  85 S10       29.85F
TERRELL        CLOUDY    52  45  77 S13       29.88F
WAXAHACHIE     CLOUDY    51  47  87 S14G23    29.86F
CLEBURNE       CLOUDY    52  48  87 S14       29.86R
GRANBURY       CLOUDY    55  48  76 S8        29.84F
$$

TXZ083>090-098>101-113>116-127>130-139>142-154-155-220000-
WESTERN NORTH TEXAS

CITY           SKY/WX    TMP DP  RH WIND       PRES   REMARKS
WICHITA FALLS  CLEAR     54  44  69 S17       29.73F
WF-KICKAPOO    CLEAR     55  44  68 S7        29.75F
VERNON         CLEAR     59  43  54 SE16      29.68F
ABILENE        CLEAR     60  42  51 S17       29.74F
ABILENE-DYESS  CLEAR     61  41  47 S18G24    29.71F
BRECKENRIDGE   CLEAR     58  44  59 S17       29.75F HAZE
GRAHAM         CLEAR     55  46  72 SE12G21   29.74F
MINERAL WELLS  CLOUDY    53  45  74 S13       29.78F
STEPHENVILLE   CLOUDY    54  46  74 S9G16     29.83F
COMANCHE       MOCLDY    56  47  72 S10       29.81F
BROWNWOOD      CLEAR     55  45  67 S12G17    29.80F
COLEMAN        CLEAR     59  45  59 SW13      29.78F
BRADY          CLEAR     55  45  67 S15       29.80F
$$

TXZ143>147-156>162-174-175-220000-
CENTRAL TEXAS

CITY           SKY/WX    TMP DP  RH WIND       PRES   REMARKS
WACO           CLOUDY    53  46  77 S15G26    29.86F
WACO-TSTC      CLOUDY    54  46  76 SE10G18   29.86F
WACO-MCGREGOR  CLOUDY    54  45  71 S12       29.88F
HILLSBORO      CLOUDY    52  46  79 SE16      29.86R
CORSICANA      CLOUDY    52  46  80 S13       29.89F
MEXIA          CLOUDY    52  46  80 S7        29.90F
HEARNE         CLOUDY    54  49  83 SE6       29.92F
CAMERON        CLOUDY    54  49  82 SE3       29.90F
TEMPLE         CLOUDY    54  45  71 S17       29.85F
KILLEEN        CLOUDY    54  49  83 S12       29.85F
KILLEEN-SKYLRK CLOUDY    55  45  67 S12       29.83F
FORT HOOD      CLOUDY    55  48  80 S10       29.84F
GATESVILLE     CLOUDY    54  48  82 S7        29.87R
HAMILTON       CLOUDY    55  48  79 S12       29.84F
$$

TXZ095>097-106>112-122>126-135>138-148>153-164>167-220000-
EAST TEXAS

CITY           SKY/WX    TMP DP  RH WIND       PRES   REMARKS
PARIS          CLOUDY    48  41  76 S10       29.90F
SULPHUR SPRNGS CLOUDY    51  44  75 S8        29.91F
MOUNT PLEASANT CLOUDY    50  43  78 S8        29.93F
MINEOLA        CLOUDY    52  45  76 S6        29.91F
TYLER          CLOUDY    52  43  71 S12       29.90F
LONGVIEW       CLOUDY    51  44  77 S5        29.93F
MARSHALL       PTCLDY    53  47  80 CALM      29.96F
ATHENS         CLOUDY    50  45  81 S10       29.89F
PALESTINE      CLOUDY    53  46  78 S3        29.95S
JACKSONVILLE   CLOUDY    51  46  82 SE6       29.95F
HENDERSON      CLOUDY    50  45  81 SW3       29.95S
NACOGDOCHES    CLOUDY    52  45  76 SE9       29.95F
LUFKIN         CLOUDY    54  46  74 SE8       29.96F
$$

SUPPLEMENTAL OBSERVATIONS (CENTRAL)

CITY           SKY/WX    TMP DP  RH WIND       PRES   REMARKS
LAKE TEXOMA      N/A     48  45  87 SE9         N/A
CADDO GRASSLND   N/A     48  43  81 S10         N/A
PAT MAYSE LAKE   N/A     48  43  81 SE12        N/A
GREENVILLE       N/A     50  43  76 S8          N/A
CEDAR HILL       N/A     52  45  76 SE8         N/A
ATHENS           N/A     52  45  76 S10         N/A
LAKE LIMESTONE   N/A     54  46  76 S5G13       N/A
MCGREGOR         N/A     54  48  82 S13         N/A
TEMPLE           N/A     54  48  82 S12         N/A
$$

SUPPLEMENTAL OBSERVATIONS (WEST)

CITY           SKY/WX    TMP DP  RH WIND       PRES   REMARKS
MILLERS CREEK    N/A     61  46  59 S14         N/A
POSSUM KINGDOM   N/A     54  43  66 S12         N/A
LBJ GRASSLAND    N/A     50  45  81 SE12        N/A
GRANBURY         N/A     54  46  76 S10         N/A
COMANCHE         N/A     55  48  76 S9G17       N/A
HAMBY            N/A     59  41  51 S17G25      N/A
IVIE RESERVOIR   N/A     61  41  48 S10G18      N/A
COLORADO BEND    N/A     55  46  71 S10         N/A
$$

SUPPLEMENTAL OBSERVATIONS (EAST)

CITY           SKY/WX    TMP DP  RH WIND       PRES   REMARKS
TEXARKANA        N/A     54  45  71 SE2         N/A
LINDEN           N/A     52  45  76 S2          N/A
CADDO LAKE       N/A     52  46  82 CALM        N/A
GILMER           N/A     50  43  76 S9          N/A
HENDERSON        N/A     50  43  76 S5G16       N/A
LUFKIN           N/A     52  45  76 MISG        N/A
N SABINE NF      N/A     54  48  82 MISG        N/A
$$

SUPPLEMENTAL OBSERVATIONS ARE A COLLECTION OF AUTOMATED INSTRUMENTS
THAT ARE MAINTAINED BY A VARIETY OF FEDERAL AND STATE AGENCIES.
CERTAIN ELEMENTS...SUCH AS HUMIDITY VALUES AND SUSTAINED WIND
SPEEDS...MAY BE APPROXIMATED.